Change the Weather History Date:

Sunday, April 13, 2014

  Actual Average Record
Temperature  
Mean Temperature 33 °F -  
Max Temperature 38 °F 49 °F - ()
Min Temperature 28 °F 33 °F - ()
Degree Days  
Heating Degree Days 32    
Moisture  
Dew Point 23 °F    
Average Humidity 61    
Maximum Humidity 81    
Minimum Humidity 41    
Precipitation  
Precipitation 0.20 in 0.12 in - ()
Sea Level Pressure  
Sea Level Pressure 30.38 in    
Wind  
Wind Speed 9 mph ()    
Max Wind Speed 16 mph    
Max Gust Speed 24 mph    
Visibility 14.6 miles    
Events Rain , Snow    
T = Trace of Precipitation, MM = Missing Value Source: Averaged Metar Reports

Daily Weather History Graph

Daily Weather History Graph

Search for Another Location

Airport or City:

Trip Planner

Search our weather history database for the weather conditions in past years. The results will help you decide how hot, cold, wet, or windy it might be!

Date:

Astronomy

Apr. 13, 2014 Rise Set
Actual Time 6:29 AM ADT 7:57 PM ADT
Civil Twilight 5:58 AM ADT 8:28 PM ADT
Nautical Twilight 5:20 AM ADT 9:06 PM ADT
Astronomical Twilight 4:39 AM ADT 9:47 PM ADT
Moon 6:26 PM ADT (4/13) 5:32 AM ADT (4/13)
Length of Visible Light 14h 30m
Length of Day
13h 27m
Waxing Gibbous, 97% of the Moon is Illuminated
Apr 13
Waxing Gibbous
Apr 15
Full
Apr 22
Last Quarter
Apr 29
New
May 7
First Quarter

Hourly Weather History & Observations

Time (ADT) Temp. Windchill Dew Point Humidity Pressure Visibility Wind Dir Wind Speed Gust Speed Precip Events Conditions
12:00 AM 39.2 °F 33.0 °F 32.0 °F 75% 30.15 in 15.0 mi NW 9.2 mph - N/A   Mostly Cloudy
1:00 AM 37.4 °F 28.2 °F 30.2 °F 75% 30.18 in 15.0 mi NW 16.1 mph 23.0 mph N/A   Mostly Cloudy
2:00 AM 35.6 °F 26.2 °F 24.8 °F 65% 30.21 in 15.0 mi NW 15.0 mph 23.0 mph N/A   Mostly Cloudy
3:00 AM 35 °F - 23 °F 50% 30.25 in 15 mi NW 15.0 mph - -   Scattered Clouds
3:00 AM 33.8 °F 23.9 °F 23.0 °F 65% 30.24 in 15.0 mi NW 15.0 mph 24.2 mph N/A   Mostly Cloudy
4:00 AM 32.0 °F 22.5 °F 21.2 °F 64% 30.27 in 15.0 mi NW 12.7 mph - N/A   Mostly Cloudy
5:00 AM 30.2 °F 22.6 °F 19.4 °F 64% 30.29 in 15.0 mi WNW 8.1 mph - N/A   Scattered Clouds
6:00 AM 30.2 °F 23.4 °F 19.4 °F 64% 30.32 in 15.0 mi WNW 6.9 mph - N/A   Partly Cloudy
7:00 AM 30.2 °F 25.4 °F 19.4 °F 64% 30.36 in 15.0 mi West 4.6 mph - N/A   Partly Cloudy
8:00 AM 32.0 °F 25.6 °F 19.4 °F 60% 30.39 in 15.0 mi WNW 6.9 mph - N/A   Partly Cloudy
9:00 AM 34 °F - 19 °F 41% 30.41 in 15 mi NNW 9.2 mph - -   Clear
9:00 AM 33.8 °F 25.3 °F 19.4 °F 56% 30.41 in 15.0 mi NNW 11.5 mph - N/A   Partly Cloudy
10:00 AM 35.6 °F 28.0 °F 19.4 °F 52% 30.42 in 15.0 mi NNW 10.4 mph - N/A   Scattered Clouds
11:00 AM 35.6 °F 29.2 °F 21.2 °F 56% 30.45 in 15.0 mi NNW 8.1 mph - N/A   Scattered Clouds
12:00 PM 35.6 °F 28.6 °F 19.4 °F 52% 30.45 in 15.0 mi North 9.2 mph - N/A   Mostly Cloudy
1:00 PM 35.6 °F 29.2 °F 21.2 °F 56% 30.45 in 15.0 mi North 8.1 mph - N/A   Mostly Cloudy
2:00 PM 37.4 °F 34.9 °F 21.2 °F 52% 30.45 in 15.0 mi North 3.5 mph - N/A   Mostly Cloudy
2:03 PM 35.6 °F 31.7 °F 19.4 °F 52% 30.45 in 15.0 mi NE 4.6 mph - N/A   Mostly Cloudy
3:00 PM 37 °F - 23 °F 44% 30.45 in 15 mi ENE 5.8 mph - -   Mostly Cloudy
3:00 PM 37.4 °F 32.8 °F 23.0 °F 56% 30.45 in 15.0 mi East 5.8 mph - N/A   Mostly Cloudy
3:03 PM 35.6 °F 30.7 °F 21.2 °F 56% 30.45 in 15.0 mi East 5.8 mph - N/A   Mostly Cloudy
4:00 PM 37.4 °F 32.1 °F 21.2 °F 52% 30.44 in 15.0 mi ENE 6.9 mph - N/A   Overcast
5:00 PM 37.4 °F 34.9 °F 21.2 °F 52% 30.45 in 15.0 mi East 3.5 mph - N/A   Overcast
5:43 PM 37.4 °F 32.8 °F 21.2 °F 52% 30.45 in 15.0 mi SSE 5.8 mph - N/A   Overcast
6:00 PM 37.4 °F 31.4 °F 24.8 °F 60% 30.44 in 15.0 mi ENE 8.1 mph - N/A   Overcast
6:28 PM 35.6 °F 29.9 °F 23.0 °F 60% 30.44 in 15.0 mi ESE 6.9 mph - N/A   Overcast
7:00 PM 35.6 °F 31.7 °F 23.0 °F 60% 30.42 in 15.0 mi ESE 4.6 mph - N/A   Overcast
8:00 PM 35.6 °F 29.9 °F 24.8 °F 65% 30.41 in 15.0 mi ESE 6.9 mph - N/A   Mostly Cloudy
9:00 PM 32 °F - 24 °F 63% 30.40 in 15 mi Calm Calm - -   Overcast
9:00 PM 32.0 °F 24.8 °F 24.8 °F 75% 30.40 in 15.0 mi ESE 8.1 mph - N/A   Overcast
9:36 PM 32.0 °F 24.2 °F 21.2 °F 64% 30.41 in 12.0 mi ESE 9.2 mph - N/A Snow Light Snow Showers
10:00 PM 32.0 °F 23.6 °F 23.0 °F 69% 30.40 in 12.0 mi ESE 10.4 mph - N/A Snow Light Snow Showers
10:26 PM 32.0 °F 23.0 °F 23.0 °F 69% 30.39 in 15.0 mi ESE 11.5 mph - N/A   Overcast
11:00 PM 32.0 °F 24.2 °F 23.0 °F 69% 30.38 in 15.0 mi SE 9.2 mph - N/A   Overcast
11:19 PM 33.8 °F 25.8 °F 24.8 °F 70% 30.38 in 12.0 mi SE 10.4 mph - N/A Snow Light Snow Showers
11:45 PM 33.8 °F 24.3 °F 28.4 °F 81% 30.36 in 10.0 mi SE 13.8 mph - N/A Rain , Snow Light Rain Showers